RA727 VNLK-VNLK

Flight info

Callsign RA727
Flight time 0h 2m
Altitude 3000
Route DCT
Aircraft DA62/L-SDFGRY/C

Departure

Time 2026-04-30 13:50
Airport Tenzing-Hillary Airport (VNLK)

Arrival

Time 2026-04-30 13:52
Airport Tenzing-Hillary Airport (VNLK)
Time Latitude Longitude Altitude Speed Heading
2026-04-30 13:42 27.68745 86.73196 9399 ft 0 kts 240°
2026-04-30 13:44 27.68730 86.73168 9403 ft 0 kts 239°
2026-04-30 13:44 27.68726 86.73187 9401 ft 0 kts 325°
2026-04-30 13:44 27.68768 86.73153 9400 ft 14 kts 283°
2026-04-30 13:44 27.68627 86.72868 9262 ft 85 kts 239°
2026-04-30 13:45 27.67047 86.71847 9012 ft 167 kts 188°
2026-04-30 13:45 27.65902 86.71694 9318 ft 162 kts 188°
2026-04-30 13:45 27.65223 86.71149 9753 ft 147 kts 306°
2026-04-30 13:46 27.66421 86.70956 8963 ft 195 kts 355°
2026-04-30 13:46 27.67538 86.71173 9207 ft 162 kts 31°
2026-04-30 13:46 27.68278 86.72145 9045 ft 168 kts 63°
2026-04-30 13:46 27.68758 86.73096 9378 ft 66 kts 59°
2026-04-30 13:47 27.68804 86.73183 9408 ft 3 kts 63°
2026-04-30 13:47 27.68792 86.73179 9404 ft 0 kts 233°
2026-04-30 13:48 27.68679 86.72971 9312 ft 75 kts 241°
2026-04-30 13:48 27.68171 86.72331 8990 ft 145 kts 205°
2026-04-30 13:48 27.67373 86.71556 8639 ft 154 kts 193°
2026-04-30 13:48 27.66600 86.70947 9130 ft 148 kts 261°
2026-04-30 13:49 27.67310 86.70542 9241 ft 161 kts 32°
2026-04-30 13:49 27.67994 86.71582 8900 ft 171 kts 62°
2026-04-30 13:49 27.68567 86.72740 9205 ft 154 kts 58°
2026-04-30 13:49 27.68614 86.73271 9768 ft 16 kts 77°
2026-04-30 13:50 27.68219 86.73802 10198 ft 146 kts 217°
2026-04-30 13:50 27.68884 86.71971 9449 ft 142 kts 287°
2026-04-30 13:50 27.68684 86.71163 9005 ft 133 kts 162°
2026-04-30 13:51 27.68433 86.72048 8900 ft 114 kts 66°
2026-04-30 13:51 27.68629 86.72851 9249 ft 68 kts 18°
2026-04-30 13:51 27.68786 86.72850 9431 ft 172 kts 335°
2026-04-30 13:51 27.69162 86.71931 9295 ft 177 kts 195°
2026-04-30 13:52 27.68359 86.72688 9858 ft 139 kts 60°
2026-04-30 13:52 27.68740 86.73155 9398 ft 0 kts 64°
2026-04-30 13:52 27.68756 86.73172 9400 ft 0 kts 229°